Weather History for Grand Rapids, MN

Change the Weather History Date:

Wednesday, February 27, 2013

  Actual Average Record
Temperature  
Mean Temperature 28 °F -  
Max Temperature 39 °F 31 °F 56 °F (1932)
Min Temperature 17 °F 9 °F -36 °F (1919)
Degree Days  
Heating Degree Days 37    
Moisture  
Dew Point 17 °F    
Average Humidity 65    
Maximum Humidity 79    
Minimum Humidity 42    
Precipitation  
Precipitation 0.00 in - - ()
Sea Level Pressure  
Sea Level Pressure 30.00 in    
Wind  
Wind Speed 7 mph (North)    
Max Wind Speed 17 mph    
Max Gust Speed 22 mph    
Visibility 10 miles    
Events      
Averages and records for this station are not official NWS values.
T = Trace of Precipitation, MM = Missing Value Source: NWS Daily Summary

Daily Weather History Graph

Daily Weather History Graph

Search for Another Location

Airport:

Trip Planner

Search our weather history database for the weather conditions in past years. The results will help you decide how hot, cold, wet, or windy it might be!

Date:

Astronomy

Feb. 27, 2013 Rise Set
Actual Time 6:57 AM CST 5:56 PM CST
Civil Twilight 6:26 AM CST 6:27 PM CST
Nautical Twilight 5:51 AM CST 7:02 PM CST
Astronomical Twilight 5:15 AM CST 7:38 PM CST
Moon 8:32 PM CST (2/27) 7:21 AM CST (2/27)
Length of Visible Light 12h 00m
Length of Day
10h 59m
Waning Gibbous, 96% of the Moon is Illuminated
Feb 27
Waning Gibbous
Mar 4
Last Quarter
Mar 11
New
Mar 19
First Quarter
Mar 27
Full

Hourly Weather History & Observations

Time (CST) Temp. Windchill Dew Point Humidity Pressure Visibility Wind Dir Wind Speed Gust Speed Precip Events Conditions
3:35 AM 19.4 °F - 12.2 °F 74% 29.96 in 10.0 mi Calm Calm - N/A   Clear
3:55 AM 17.6 °F 9.3 °F 12.2 °F 79% 29.96 in 10.0 mi NNW 5.8 mph - N/A   Clear
4:15 AM 19.4 °F 11.5 °F 12.2 °F 74% 29.96 in 10.0 mi NNW 5.8 mph - N/A   Clear
4:35 AM 17.6 °F 10.7 °F 8.6 °F 68% 29.96 in 10.0 mi NNW 4.6 mph - N/A   Clear
4:55 AM 17.6 °F 8.2 °F 10.4 °F 73% 29.96 in 10.0 mi NNW 6.9 mph - N/A   Clear
5:15 AM 19.4 °F 9.5 °F 10.4 °F 68% 29.96 in 10.0 mi NW 8.1 mph - N/A   Clear
5:35 AM 17.6 °F 7.3 °F 10.4 °F 73% 29.96 in 10.0 mi NNW 8.1 mph - N/A   Clear
5:55 AM 19.4 °F 12.8 °F 12.2 °F 74% 29.96 in 10.0 mi NNW 4.6 mph - N/A   Clear
6:15 AM 19.4 °F 12.8 °F 12.2 °F 74% 29.96 in 10.0 mi NNW 4.6 mph - N/A   Clear
6:35 AM 19.4 °F 12.8 °F 12.2 °F 74% 29.96 in 10.0 mi NNW 4.6 mph - N/A   Clear
6:55 AM 19.4 °F 12.8 °F 12.2 °F 74% 29.96 in 10.0 mi North 4.6 mph - N/A   Clear
7:15 AM 17.6 °F 9.3 °F 10.4 °F 73% 29.97 in 10.0 mi NNW 5.8 mph - N/A   Clear
7:35 AM 17.6 °F 12.3 °F 12.2 °F 79% 29.98 in 10.0 mi North 3.5 mph - N/A   Clear
7:55 AM 17.6 °F - 10.4 °F 73% 29.98 in 10.0 mi Calm Calm - N/A   Clear
8:15 AM 19.4 °F 12.8 °F 12.2 °F 74% 29.98 in 10.0 mi NNW 4.6 mph - N/A   Clear
8:35 AM 19.4 °F 10.4 °F 12.2 °F 74% 29.99 in 10.0 mi NNW 6.9 mph - N/A   Clear
8:55 AM 19.4 °F 10.4 °F 12.2 °F 74% 29.99 in 10.0 mi NNW 6.9 mph - N/A   Clear
9:15 AM 21.2 °F 11.7 °F 12.2 °F 68% 29.99 in 10.0 mi NNW 8.1 mph - N/A   Clear
9:35 AM 23.0 °F 13.9 °F 15.8 °F 74% 29.99 in 10.0 mi NNW 8.1 mph - N/A   Clear
9:55 AM 24.8 °F 16.9 °F 15.8 °F 69% 29.99 in 10.0 mi NNW 6.9 mph - N/A   Clear
10:15 AM 26.6 °F 20.0 °F 17.6 °F 69% 29.98 in 10.0 mi NNW 5.8 mph - N/A   Clear
10:35 AM 30.2 °F 22.6 °F 19.4 °F 64% 29.98 in 10.0 mi North 8.1 mph - N/A   Clear
10:55 AM 30.2 °F 24.3 °F 19.4 °F 64% 29.98 in 10.0 mi North 5.8 mph - N/A   Clear
11:15 AM 32.0 °F 24.8 °F 17.6 °F 55% 29.97 in 10.0 mi NNE 8.1 mph - N/A   Clear
11:35 AM 32.0 °F 24.8 °F 19.4 °F 60% 29.97 in 10.0 mi NNW 8.1 mph - N/A   Clear
11:55 AM 33.8 °F 25.8 °F 19.4 °F 56% 29.96 in 10.0 mi North 10.4 mph - N/A   Clear
12:15 PM 33.8 °F 24.8 °F 19.4 °F 56% 29.96 in 10.0 mi North 12.7 mph - N/A   Clear
12:35 PM 35.6 °F 27.1 °F 19.4 °F 52% 29.95 in 10.0 mi NNW 12.7 mph - N/A   Clear
12:55 PM 35.6 °F 25.5 °F 19.4 °F 52% 29.94 in 10.0 mi NNW 17.3 mph - N/A   Clear
1:15 PM 35.6 °F 27.5 °F 19.4 °F 52% 29.94 in 10.0 mi North 11.5 mph - N/A   Clear
1:35 PM 39.2 °F 32.5 °F 17.6 °F 42% 29.94 in 10.0 mi North 10.4 mph 19.6 mph N/A   Clear
1:55 PM 39.2 °F 32.5 °F 17.6 °F 42% 29.94 in 10.0 mi North 10.4 mph 18.4 mph N/A   Clear
2:15 PM 39.2 °F 32.0 °F 17.6 °F 42% 29.94 in 10.0 mi North 11.5 mph - N/A   Clear
2:35 PM 39.2 °F 33.0 °F 19.4 °F 45% 29.94 in 10.0 mi NNE 9.2 mph - N/A   Clear
2:55 PM 39.2 °F 31.6 °F 19.4 °F 45% 29.95 in 10.0 mi North 12.7 mph - N/A   Clear
3:15 PM 39.2 °F 32.0 °F 17.6 °F 42% 29.95 in 10.0 mi North 11.5 mph 17.3 mph N/A   Clear
3:35 PM 39.2 °F 32.5 °F 19.4 °F 45% 29.96 in 10.0 mi NNE 10.4 mph - N/A   Clear
3:55 PM 39.2 °F 33.6 °F 19.4 °F 45% 29.97 in 10.0 mi NNE 8.1 mph - N/A   Clear
4:15 PM 37.4 °F 29.8 °F 19.4 °F 48% 29.98 in 10.0 mi NNE 11.5 mph 18.4 mph N/A   Clear
4:35 PM 35.6 °F 26.6 °F 19.4 °F 52% 29.99 in 10.0 mi North 13.8 mph 18.4 mph N/A   Clear
4:55 PM 33.8 °F 24.8 °F 19.4 °F 56% 29.99 in 10.0 mi North 12.7 mph 21.9 mph N/A   Clear
5:15 PM 32.0 °F 21.2 °F 19.4 °F 60% 30.00 in 10.0 mi North 16.1 mph 19.6 mph N/A   Clear
5:35 PM 30.2 °F 19.8 °F 19.4 °F 64% 30.02 in 10.0 mi North 13.8 mph 19.6 mph N/A   Clear
5:55 PM 28.4 °F 19.7 °F 19.4 °F 69% 30.03 in 10.0 mi North 9.2 mph - N/A   Partly Cloudy
6:15 PM 28.4 °F 19.1 °F 19.4 °F 69% 30.04 in 10.0 mi NE 10.4 mph 18.4 mph N/A   Mostly Cloudy
6:35 PM 28.4 °F 19.1 °F 19.4 °F 69% 30.05 in 10.0 mi North 10.4 mph - N/A   Overcast
6:55 PM 28.4 °F 20.4 °F 19.4 °F 69% 30.05 in 10.0 mi North 8.1 mph 16.1 mph N/A   Overcast
7:15 PM 28.4 °F 20.4 °F 19.4 °F 69% 30.05 in 10.0 mi North 8.1 mph - N/A   Overcast
7:35 PM 28.4 °F 19.7 °F 19.4 °F 69% 30.05 in 10.0 mi North 9.2 mph - N/A   Overcast
7:55 PM 28.4 °F 18.0 °F 19.4 °F 69% 30.05 in 10.0 mi NNE 12.7 mph - N/A   Overcast
8:15 PM 28.4 °F 19.7 °F 19.4 °F 69% 30.06 in 10.0 mi North 9.2 mph - N/A   Overcast
8:35 PM 28.4 °F 17.5 °F 19.4 °F 69% 30.06 in 10.0 mi North 13.8 mph 21.9 mph N/A   Overcast
8:55 PM 28.4 °F 18.0 °F 19.4 °F 69% 30.06 in 10.0 mi North 12.7 mph 19.6 mph N/A   Overcast
9:15 PM 28.4 °F 18.0 °F 19.4 °F 69% 30.06 in 10.0 mi North 12.7 mph - N/A   Overcast
9:35 PM 28.4 °F 17.5 °F 19.4 °F 69% 30.06 in 10.0 mi North 13.8 mph 19.6 mph N/A   Overcast
9:55 PM 28.4 °F 17.5 °F 19.4 °F 69% 30.07 in 10.0 mi North 13.8 mph 17.3 mph N/A   Overcast
10:15 PM 26.6 °F 17.5 °F 19.4 °F 74% 30.07 in 10.0 mi NNE 9.2 mph - N/A   Overcast
10:35 PM 26.6 °F 16.8 °F 19.4 °F 74% 30.08 in 10.0 mi North 10.4 mph 17.3 mph N/A   Overcast
10:55 PM 26.6 °F 17.5 °F 19.4 °F 74% 30.08 in 10.0 mi North 9.2 mph 16.1 mph N/A   Overcast
11:15 PM 26.6 °F 15.7 °F 19.4 °F 74% 30.09 in 10.0 mi North 12.7 mph 16.1 mph N/A   Overcast
11:35 PM 26.6 °F 16.2 °F 19.4 °F 74% 30.09 in 10.0 mi North 11.5 mph 17.3 mph N/A   Overcast
11:55 PM 26.6 °F 17.5 °F 19.4 °F 74% 30.09 in 10.0 mi NNE 9.2 mph 17.3 mph N/A   Overcast